Flag for Australia Weather past 2 weeks in Perth, Western Australia, Australia

Now
59 °F

Passing clouds.


Feels Like: 57 °F
Forecast: 60 / 79 °F
Wind: 12 mph from South

Location: Belmont Perth Airport

Current Time: Apr 1, 2015 at 5:04:33 AM

Latest Report: Apr 1, 2015 at 4:30 AM


Visibility: N/A

Pressure: 30.18 "Hg

Humidity: 68%

Dew point: 48 °F

Location of PerthLocation

Historic Weather in Perth — Graph

°F

Perth temperature yesterday

Maximum temperature yesterday: 77 °F (at 1:30 PM)
Minimum temperature yesterday: 63 °F (at 4:00 AM)
Average temperature yesterday: 69 °F

Past Weeks' High & Low Weather Summary

 TemperatureHumidityPressure
High88 °F (Mar 20, 3:00 PM)100% (Mar 19, 4:30 AM)30.42 "Hg (Mar 19, 4:30 AM)
Low52 °F (Mar 28, 5:30 AM)16% (Mar 25, 4:30 PM)29.68 "Hg (Mar 18, 3:00 AM)
Average69 °F59%30.07 "Hg
* Reported Mar 17 3:00 AM — Apr 1 3:30 AM, Perth, Weather by CustomWeather, © 2015

Note: Actual official high and low records may vary slightly from our data, if they occured in-between our weather recording intervals... More about our weather records

Advertising

Perth weather history for previous 24 hours

 ConditionsComfort  
Time TempWeatherWind HumidityBarometerVisibility
3:30 AM
Wed, Apr 1
61 °FClear.9 mph63%30.18 "Hg10 mi
3:00 AM61 °FClear.10 mph63%30.18 "Hg10 mi
2:30 AM61 °FClear.13 mph68%30.18 "Hg10 mi
2:00 AM59 °FClear.9 mph88%30.18 "Hg10 mi
1:30 AM61 °FClear.10 mph83%30.15 "Hg10 mi
1:00 AM63 °FClear.10 mph77%30.15 "Hg10 mi
12:30 AM63 °FClear.10 mph83%30.15 "Hg10 mi
12:00 AM63 °FClear.13 mph83%30.12 "Hg10 mi
11:30 PM
Tue, Mar 31
63 °FClear.13 mph83%30.12 "Hg10 mi
11:00 PM64 °FClear.12 mph78%30.12 "Hg10 mi
10:30 PM64 °FClear.9 mph83%30.12 "Hg10 mi
10:00 PM66 °FClear.15 mph78%30.12 "Hg10 mi
9:30 PM66 °FClear.12 mph83%30.12 "Hg10 mi
9:00 PM68 °FClear.10 mph78%30.09 "Hg10 mi
8:30 PM68 °FClear.9 mph78%30.09 "Hg10 mi
8:00 PM68 °FPassing clouds.10 mph73%30.09 "HgN/A
7:30 PM70 °FPassing clouds.15 mph69%30.09 "HgN/A
7:00 PM70 °FPassing clouds.14 mph73%30.07 "HgN/A
6:30 PM70 °FPassing clouds.17 mph69%30.07 "HgN/A
6:00 PM72 °FPassing clouds.17 mph65%30.07 "HgN/A
5:30 PM73 °FPassing clouds.17 mph53%30.04 "HgN/A
5:00 PM75 °FPassing clouds.17 mph50%30.04 "HgN/A
4:30 PM75 °FPassing clouds.18 mph54%30.01 "HgN/A
4:00 PM77 °FPassing clouds.13 mph51%30.01 "HgN/A
3:30 PM77 °FPassing clouds.16 mph51%30.01 "HgN/A
3:00 PM77 °FPassing clouds.17 mph51%30.01 "HgN/A
2:30 PM77 °FPassing clouds.14 mph51%30.01 "HgN/A
2:00 PM77 °FPassing clouds.15 mph51%30.01 "HgN/A
1:30 PM77 °FScattered clouds.16 mph47%30.01 "HgN/A
1:00 PM75 °FScattered clouds.13 mph47%30.01 "HgN/A
12:30 PM75 °FBroken clouds.13 mph47%30.04 "HgN/A
12:00 PM75 °FPartly sunny.14 mph47%30.04 "HgN/A
11:30 AM73 °FPartly sunny.12 mph50%30.04 "HgN/A
11:00 AM75 °FPartly sunny.13 mph47%30.04 "HgN/A
10:30 AM73 °FPartly sunny.8 mph53%30.07 "HgN/A
10:00 AM72 °FPartly sunny.10 mph57%30.07 "HgN/A
9:30 AM72 °FPartly sunny.10 mph57%30.07 "HgN/A
9:00 AM70 °FPartly sunny.10 mph64%30.07 "HgN/A
8:30 AM68 °FPartly sunny.9 mph73%30.07 "HgN/A
8:00 AM66 °FPartly sunny.8 mph78%30.04 "HgN/A
7:30 AM64 °FPartly sunny.8 mph78%30.04 "HgN/A
7:00 AM63 °FPartly sunny.7 mph83%30.04 "HgN/A
6:30 AM63 °FPartly sunny.9 mph88%30.01 "HgN/A
6:00 AM63 °FSunny.10 mph88%30.01 "Hg10 mi
5:30 AM63 °FSunny.7 mph88%30.01 "Hg10 mi
5:00 AM63 °FClear.7 mph94%30.01 "Hg10 mi
Weather by CustomWeather, © 2015

See weather overviewHow to use our weather pages